Kars, Turkey

7:31 AM +03 on November 24, 2017 (GMT +0300)
Kars

Weather History for LTCF - April, 2014

Change the Weather History Date:

Thursday, April 24, 2014

  Actual Average Record
Temperature  
Mean Temperature 47 °F -  
Max Temperature 62 °F 59 °F - ()
Min Temperature 32 °F 38 °F - ()
Degree Days  
Heating Degree Days 18    
Moisture  
Dew Point 22 °F    
Average Humidity 33    
Maximum Humidity 61    
Minimum Humidity 10    
Precipitation  
Precipitation 0.00 in 0.09 in - ()
Sea Level Pressure  
Sea Level Pressure 30.07 in    
Wind  
Wind Speed 6 mph ()    
Max Wind Speed 17 mph    
Max Gust Speed -    
Visibility 6.1 miles    
Events      
T = Trace of Precipitation, MM = Missing Value Source: Averaged Metar Reports

Daily Weather History Graph

Daily Weather History Graph

Search for Another Location

Airport or City:

Trip Planner

Search our weather history database for the weather conditions in past years. The results will help you decide how hot, cold, wet, or windy it might be!

Date:

Astronomy

Apr. 24, 2014 Rise Set
Actual Time 5:16 AM EEST 6:55 PM EEST
Civil Twilight 4:47 AM EEST 7:24 PM EEST
Nautical Twilight 4:12 AM EEST 7:59 PM EEST
Astronomical Twilight 3:35 AM EEST 8:37 PM EEST
Moon 2:14 AM EEST 1:45 PM EEST
Length of Visible Light 14h 37m
Length of Day
13h 39m
Waning Crescent, 27% of the Moon is Illuminated
Apr 24
Waning Crescent
Apr 29
New
May 7
First Quarter
May 14
Full
May 21
Last Quarter

Hourly Weather History & Observations

Time (EEST) Temp. Windchill Dew Point Humidity Pressure Visibility Wind Dir Wind Speed Gust Speed Precip Events Conditions
12:00 AM 41 °F - 27 °F 45%  in 6 mi NE 9.2 mph - -   Partly Cloudy
12:50 AM 41.0 °F 38.0 °F 24.8 °F 53% 30.09 in 6.2 mi NNW 4.6 mph - N/A   Scattered Clouds
1:50 AM 42.8 °F - 21.2 °F 42% 30.09 in 6.2 mi Calm Calm - N/A   Scattered Clouds
3:00 AM 42 °F - 15 °F 20%  in 6 mi NW 9.2 mph - -   Partly Cloudy
3:50 AM 39.2 °F - 19.4 °F 45% 30.09 in 6.2 mi Variable 2.3 mph - N/A   Partly Cloudy
4:50 AM 33.8 °F - 19.4 °F 56% 30.06 in 6.2 mi Variable 2.3 mph - N/A   Scattered Clouds
5:50 AM 33.8 °F 30.8 °F 21.2 °F 60% 30.09 in 6.2 mi Variable 3.5 mph - N/A   Scattered Clouds
6:00 AM 34 °F - 21 °F 46%  in 6 mi East 3.5 mph - -   Partly Cloudy
6:50 AM 42.8 °F - 21.2 °F 42% 30.09 in 6.2 mi Variable 1.2 mph - N/A   Partly Cloudy
7:50 AM 48.2 °F - 19.4 °F 32% 30.09 in 6.2 mi Variable 2.3 mph - N/A   Partly Cloudy
8:50 AM 50.0 °F - 17.6 °F 28% 30.09 in 6.2 mi Variable 3.5 mph - N/A   Partly Cloudy
9:00 AM 51 °F - 17 °F 15%  in 6 mi NNW 3.5 mph - -   Scattered Clouds
9:50 AM 53.6 °F - 15.8 °F 22% 30.09 in 6.2 mi NW 10.4 mph - N/A   Partly Cloudy
10:50 AM 57.2 °F - 15.8 °F 20% 30.09 in 6.2 mi NNW 11.5 mph - N/A   Partly Cloudy
11:50 AM 57.2 °F - 17.6 °F 21% 30.06 in 6.2 mi WNW 9.2 mph - N/A   Partly Cloudy
12:00 PM 57 °F - 17 °F 11%  in 6 mi WNW 9.2 mph - -   Scattered Clouds
12:50 PM 57.2 °F - 17.6 °F 21% 30.06 in 6.2 mi West 3.5 mph - N/A   Scattered Clouds
1:50 PM 60.8 °F - 19.4 °F 20% 30.06 in 6.2 mi WNW 10.4 mph - N/A   Scattered Clouds
2:50 PM 62.6 °F - 21.2 °F 20% 30.04 in 6.2 mi WNW 13.8 mph - N/A   Scattered Clouds
3:00 PM 63 °F - 21 °F 10%  in 6 mi WNW 13.8 mph - -   Partly Cloudy
3:50 PM 60.8 °F - 17.6 °F 19% 30.04 in 6.2 mi West 13.8 mph - N/A   Scattered Clouds
4:50 PM 60.8 °F - 19.4 °F 20% 30.04 in 6.2 mi WNW 15.0 mph - N/A   Mostly Cloudy
5:50 PM 59.0 °F - 26.6 °F 29% 30.04 in 6.2 mi NNW 17.3 mph - N/A   Scattered Clouds
6:00 PM 59 °F - 26 °F 17%  in 6 mi NNW 17.3 mph - -   Scattered Clouds
6:50 PM 55.4 °F - 26.6 °F 33% 30.06 in 6.2 mi North 9.2 mph - N/A   Scattered Clouds
7:50 PM 51.8 °F - 28.4 °F 41% 30.06 in 6.2 mi NNE 3.5 mph - N/A   Mostly Cloudy
8:50 PM 48.2 °F - 28.4 °F 46% 30.09 in 6.2 mi NNE 11.5 mph - N/A   Scattered Clouds
9:00 PM 48 °F - 28 °F 34%  in 6 mi NNE 11.5 mph - -   Partly Cloudy
9:50 PM 44.6 °F 40.2 °F 26.6 °F 49% 30.09 in 6.2 mi East 8.1 mph - N/A   Scattered Clouds
10:50 PM 42.8 °F 38.6 °F 28.4 °F 57% 30.09 in 6.2 mi East 6.9 mph - N/A   Partly Cloudy
11:50 PM 41.0 °F 35.2 °F 28.4 °F 61% 30.09 in 6.2 mi ESE 9.2 mph - N/A   Partly Cloudy